Wind_Speed
21 22 22 22 22 21 21 21 21 21 20 20 21 21 22 22 22 22 22 23 23 24 24 25 25 25 25 26 26 26 26 27 27 28 27 26 26 26 26 27 27 27 25
22 23 23 22 22 22 22 22 21 21 21 22 23 23 23 23 23 23 24 23 23 24 25 25 25 26 26 26 27 27 27 28 28 28 28 28 28 28 28 27 27 27 27
22 23 23 23 22 22 22 22 22 22 23 24 24 24 24 24 24 24 25 25 25 26 26 26 26 27 27 28 28 28 28 28 28 28 28 28 28 28 29 29 28 28 29
23 24 24 23 23 22 22 23 23 24 24 24 24 25 25 25 25 25 25 26 26 27 27 28 28 28 28 28 29 29 29 29 28 27 28 28 28 28 28 29 30 29 29
24 24 23 24 23 23 23 24 24 24 25 25 25 26 27 27 26 26 26 27 27 27 28 28 29 29 29 29 29 29 29 29 29 29 29 29 28 28 28 29 29 29 28
25 24 24 25 24 24 24 25 25 25 25 26 26 26 27 27 27 26 27 27 27 28 28 29 29 29 30 29 29 29 29 29 30 30 30 30 29 29 28 28 27 28 28
25 24 25 25 25 25 25 26 26 26 26 27 27 27 27 27 27 27 27 27 28 29 29 29 29 29 29 30 31 30 30 29 29 30 30 30 30 30 30 30 30 30 30
25 25 25 25 25 26 26 26 27 28 28 28 27 26 27 27 28 27 27 27 27 28 28 29 30 30 29 30 31 32 31 30 30 30 31 32 31 30 30 31 31 31 31
25 26 26 26 26 27 27 28 28 28 28 28 28 27 28 28 28 28 27 27 27 28 28 28 29 29 29 30 30 32 32 33 32 31 32 33 33 32 31 31 31 31 32
25 25 26 26 26 27 27 28 28 29 29 29 29 29 29 29 29 28 28 28 28 28 28 28 28 29 28 29 30 30 31 33 33 32 32 32 32 32 31 31 31 31 32
25 25 26 26 26 26 27 27 28 28 28 28 28 28 28 29 29 29 29 29 28 28 28 28 28 28 28 28 29 31 31 32 32 33 32 32 32 32 32 31 30 30 31
24 24 25 26 26 26 26 26 27 27 27 27 27 27 27 28 28 29 29 29 29 28 28 29 28 29 30 30 30 30 30 30 31 31 32 32 31 31 31 31 31 30 30
24 24 25 25 26 25 26 26 26 25 25 26 27 27 27 26 27 28 28 28 27 27 28 28 28 28 29 29 29 29 29 29 30 30 31 32 31 31 31 32 32 31 31
25 24 25 25 24 24 25 25 24 25 25 25 26 26 26 26 26 27 28 28 27 26 26 26 27 28 27 27 27 27 27 27 28 28 29 30 31 31 32 32 33 33 33
24 23 23 22 23 23 23 24 24 25 25 25 26 26 25 25 25 25 26 26 26 26 25 25 25 26 26 26 26 26 26 27 27 27 27 29 30 31 32 32 33 33 33
23 22 22 22 22 22 22 23 24 23 24 24 25 25 24 24 24 24 24 24 24 24 23 22 22 23 24 24 24 24 25 25 25 26 26 27 29 30 31 32 32 32 32
22 22 21 21 21 21 21 22 23 22 22 22 23 22 22 21 21 21 21 21 22 22 21 21 21 22 22 22 22 22 22 23 23 24 25 25 26 28 29 30 30 31 31
21 21 20 20 21 21 21 21 21 20 20 20 20 19 18 18 18 19 18 18 18 18 19 20 20 20 20 20 20 20 21 21 21 22 23 24 24 25 26 27 27 28 28
20 20 20 20 21 20 20 19 19 19 18 18 18 17 16 16 17 16 16 16 16 17 18 19 18 18 18 19 19 19 19 20 20 21 21 22 22 22 23 24 24 25 25
19 19 20 20 20 19 18 17 17 18 17 17 17 17 16 15 14 14 15 16 16 16 17 17 16 16 16 17 17 18 18 19 19 18 18 19 21 21 21 22 22 23 23
18 18 19 19 19 18 17 16 17 18 17 17 16 15 14 13 13 14 14 14 14 15 15 14 15 15 15 15 15 16 16 16 16 16 16 16 17 18 19 19 20 21 21
16 17 17 18 17 17 16 16 16 16 15 15 15 14 14 13 13 13 13 13 13 13 13 13 13 14 15 14 14 13 14 14 14 15 15 15 15 16 17 18 19 19 20
15 16 17 17 16 16 16 15 15 15 14 15 14 14 13 13 12 12 12 12 13 13 13 14 13 13 14 14 13 13 13 12 13 13 14 14 14 14 14 15 16 17 17
15 16 16 16 16 16 15 15 15 15 15 15 15 14 13 12 12 12 12 12 12 13 13 13 13 13 13 13 12 12 13 12 12 11 12 13 13 13 13 13 14 14 16
15 15 15 16 15 15 14 15 15 15 15 15 15 14 14 13 12 13 12 12 12 12 12 12 11 12 12 11 10 10 10 11 11 11 11 11 12 13 14 14 14 14 15
14 14 14 14 15 15 15 15 15 15 15 15 15 15 14 14 14 13 13 13 12 12 12 11 11 11 11 10 10 9 9 10 10 11 11 12 12 12 13 13 14 15 15
Wind_Direction
292 294 295 291 291 288 287 286 282 281 280 278 277 278 276 276 275 274 271 270 269 268 267 267 265 263 264 264 264 264 263 261 259 256 255 253 250 248 248 245 245 245 245
292 292 294 294 293 290 289 289 285 283 281 279 278 278 279 279 277 274 272 271 270 269 268 266 265 264 265 265 263 263 263 261 260 258 256 253 251 251 249 247 246 246 246
294 293 294 293 293 293 291 291 288 286 284 282 280 279 279 280 278 275 274 273 272 270 268 267 265 264 266 266 264 263 262 261 261 259 258 257 254 251 248 247 247 247 245
294 293 292 293 293 293 292 292 290 288 286 285 283 282 281 281 279 278 277 275 273 270 268 267 266 266 266 265 264 263 262 262 260 259 258 257 255 252 252 250 248 249 248
294 293 293 293 291 291 290 290 291 289 287 286 284 282 282 282 281 280 278 277 274 271 270 268 267 266 265 264 264 263 262 260 258 258 258 257 256 253 252 251 250 250 251
293 293 292 292 290 290 290 290 290 290 289 288 286 284 284 283 283 282 278 276 275 273 272 270 268 267 266 265 265 264 261 259 257 258 257 257 256 253 252 250 249 250 250
293 292 291 291 291 291 291 291 289 288 290 290 289 285 284 283 283 282 281 279 276 275 273 271 270 270 269 267 264 263 261 259 257 257 257 257 256 254 253 251 250 251 251
293 292 292 292 293 292 290 289 288 289 289 290 289 287 285 285 283 282 282 281 279 276 273 271 270 270 270 268 264 262 260 258 257 256 256 255 255 253 254 252 251 251 251
292 291 292 292 292 292 291 290 290 289 288 288 288 287 286 285 284 282 282 281 280 278 275 274 271 272 270 270 267 264 261 259 258 258 256 255 254 255 256 253 252 252 251
291 292 292 291 291 292 293 293 293 290 289 289 287 287 287 285 283 282 281 280 280 277 275 274 273 272 272 271 268 267 264 261 259 258 257 256 255 255 256 255 254 253 252
294 297 295 293 293 293 293 294 294 293 292 291 290 288 288 286 283 281 280 279 278 278 277 275 273 271 270 270 269 268 266 263 261 258 256 256 255 254 254 254 254 254 253
298 301 300 297 296 296 296 297 298 297 296 294 292 291 290 288 285 282 280 279 277 277 278 277 274 272 270 270 271 268 267 266 263 260 257 256 256 254 253 252 252 253 253
304 303 303 300 298 297 299 300 300 300 299 297 295 293 291 289 287 284 280 279 278 277 278 278 276 275 272 270 269 269 267 267 264 261 258 257 255 255 254 253 253 253 253
307 306 305 304 302 300 301 301 302 301 300 299 297 294 292 291 288 285 281 277 276 277 277 279 276 274 272 268 267 267 266 266 264 261 259 257 255 255 255 254 254 254 253
310 310 310 308 305 304 304 304 303 302 301 300 299 296 293 291 290 287 283 279 277 277 279 280 277 275 272 269 268 267 266 266 264 262 260 259 257 256 255 254 254 254 254
312 313 312 312 311 309 309 309 309 306 304 301 299 296 294 293 293 290 287 283 280 278 278 278 277 274 273 272 270 270 269 268 265 263 262 261 259 258 257 254 253 254 255
313 313 313 315 316 316 316 314 311 308 308 306 304 299 295 293 293 292 289 284 281 280 278 278 280 278 276 274 273 273 271 268 266 264 264 263 261 259 257 254 253 253 253
314 315 315 316 316 316 316 314 314 312 312 310 308 302 299 297 296 295 293 288 284 282 281 281 281 280 277 277 276 274 273 271 267 266 265 263 263 261 258 255 255 254 254
316 317 320 319 320 319 317 316 318 319 319 318 315 311 305 302 301 297 294 292 291 291 287 286 285 283 281 280 278 275 273 272 268 266 265 263 262 260 258 255 254 255 255
318 320 321 320 322 322 320 320 322 324 321 319 318 316 313 311 309 306 302 300 298 295 293 290 286 288 287 284 279 275 275 273 268 267 265 263 261 259 257 255 254 254 255
321 321 322 323 324 327 326 325 326 326 326 324 323 321 319 318 316 312 308 307 306 303 298 297 295 294 292 286 282 277 274 271 270 268 267 263 258 257 256 256 254 254 255
325 325 325 325 326 329 330 331 331 331 330 330 331 331 328 325 320 317 317 316 317 314 308 304 301 299 295 291 285 280 276 273 270 267 266 266 263 261 262 262 258 255 255
326 326 328 328 330 331 331 332 332 333 333 332 333 332 331 331 325 323 321 318 319 316 312 309 304 304 303 297 289 282 280 277 273 270 265 263 264 263 261 261 259 258 256
324 327 331 332 333 333 333 332 333 335 337 336 335 332 329 325 326 324 324 320 320 321 319 315 311 309 307 303 294 291 287 279 275 272 269 267 265 265 263 263 264 262 260
329 331 332 333 334 335 336 335 337 338 339 339 339 335 331 330 322 322 324 321 321 322 322 322 322 318 313 310 306 300 291 282 279 278 275 273 268 267 267 267 267 265 265
334 334 335 337 337 337 338 340 340 339 338 338 339 339 334 329 328 325 323 322 320 319 318 318 319 321 318 312 307 305 299 290 284 283 279 277 274 269 267 269 270 267 267
Height
5848 5847 5846 5844 5843 5842 5841 5840 5839 5838 5837 5837 5837 5836 5836 5836 5836 5836 5836 5836 5836 5836 5836 5836 5836 5837 5837 5838 5838 5839 5839 5840 5840 5841 5842 5843 5844 5845 5846 5848 5849 5851 5853
5844 5842 5841 5840 5838 5837 5836 5835 5834 5833 5833 5832 5832 5831 5830 5830 5830 5830 5830 5830 5830 5830 5830 5830 5830 5831 5831 5832 5832 5832 5833 5833 5834 5834 5835 5836 5837 5839 5841 5842 5844 5845 5847
5839 5838 5837 5835 5834 5832 5831 5830 5829 5828 5827 5827 5826 5825 5825 5824 5824 5823 5823 5823 5823 5823 5823 5823 5824 5824 5825 5825 5825 5825 5826 5826 5827 5827 5828 5829 5831 5832 5834 5836 5837 5839 5841
5835 5833 5832 5831 5829 5828 5826 5825 5824 5822 5822 5821 5820 5819 5819 5818 5817 5817 5816 5816 5816 5816 5816 5816 5817 5817 5817 5818 5818 5818 5818 5819 5820 5820 5821 5823 5824 5825 5827 5829 5831 5833 5834
5830 5828 5827 5826 5824 5823 5821 5820 5818 5816 5815 5815 5814 5813 5812 5811 5810 5810 5809 5809 5809 5809 5809 5809 5809 5809 5809 5810 5810 5811 5811 5812 5812 5813 5814 5816 5817 5819 5820 5822 5824 5826 5828
5825 5824 5822 5821 5819 5817 5816 5814 5812 5811 5810 5808 5807 5806 5805 5804 5803 5802 5801 5801 5800 5800 5801 5801 5801 5801 5801 5802 5803 5803 5803 5804 5805 5806 5807 5808 5810 5812 5813 5815 5817 5819 5821
5820 5818 5817 5815 5813 5812 5810 5808 5806 5805 5803 5802 5801 5799 5798 5797 5796 5794 5794 5793 5793 5792 5793 5793 5793 5793 5793 5794 5794 5795 5795 5797 5798 5799 5800 5801 5803 5804 5806 5808 5810 5812 5814
5815 5813 5811 5810 5808 5806 5804 5802 5800 5798 5797 5795 5793 5792 5791 5791 5789 5787 5786 5786 5785 5784 5784 5784 5785 5785 5785 5785 5786 5786 5787 5788 5790 5791 5792 5794 5795 5797 5798 5800 5802 5804 5806
5809 5808 5806 5804 5802 5800 5798 5796 5794 5792 5790 5788 5786 5785 5784 5783 5781 5780 5779 5778 5777 5777 5776 5776 5776 5776 5777 5777 5777 5778 5779 5780 5781 5783 5784 5786 5787 5789 5791 5792 5795 5797 5799
5804 5802 5799 5797 5795 5793 5791 5789 5786 5784 5783 5781 5779 5777 5776 5774 5773 5772 5771 5770 5769 5769 5768 5768 5768 5768 5768 5768 5769 5769 5770 5771 5772 5774 5776 5777 5779 5781 5783 5785 5787 5789 5791
5798 5796 5793 5791 5789 5786 5784 5782 5779 5777 5775 5773 5771 5770 5768 5766 5764 5764 5764 5763 5762 5761 5760 5760 5760 5760 5760 5760 5760 5760 5761 5762 5763 5765 5767 5769 5771 5773 5775 5777 5779 5781 5782
5792 5790 5788 5785 5783 5780 5778 5775 5773 5770 5768 5766 5764 5762 5760 5758 5757 5756 5755 5754 5754 5753 5752 5751 5751 5751 5751 5751 5751 5751 5752 5753 5754 5755 5758 5760 5762 5765 5767 5769 5771 5773 5775
5788 5785 5782 5779 5777 5774 5772 5769 5767 5764 5762 5759 5757 5755 5753 5751 5749 5748 5747 5746 5745 5745 5744 5743 5743 5743 5743 5743 5743 5743 5743 5744 5745 5747 5749 5751 5754 5756 5758 5760 5762 5764 5766
5782 5780 5777 5774 5771 5769 5766 5763 5761 5758 5755 5753 5750 5748 5746 5744 5742 5740 5739 5738 5738 5737 5737 5736 5735 5735 5735 5735 5735 5736 5736 5736 5737 5739 5740 5743 5745 5747 5749 5751 5753 5756 5758
5777 5774 5771 5769 5766 5763 5760 5757 5755 5752 5749 5746 5744 5741 5739 5737 5735 5733 5732 5731 5731 5730 5730 5729 5729 5728 5727 5727 5728 5728 5729 5729 5730 5732 5733 5735 5736 5738 5740 5742 5745 5747 5749
5773 5770 5767 5764 5761 5758 5755 5752 5749 5746 5743 5740 5737 5735 5732 5730 5728 5727 5725 5724 5724 5723 5723 5723 5722 5722 5721 5721 5721 5721 5721 5722 5723 5725 5726 5727 5728 5730 5731 5733 5736 5738 5740
5769 5766 5763 5760 5756 5753 5750 5747 5744 5741 5738 5735 5732 5729 5726 5724 5723 5721 5720 5718 5718 5717 5717 5716 5716 5716 5715 5715 5715 5715 5715 5716 5717 5718 5719 5720 5721 5722 5723 5725 5727 5729 5731
5765 5762 5759 5755 5752 5749 5746 5743 5739 5736 5733 5730 5727 5724 5722 5720 5718 5716 5715 5713 5713 5712 5711 5711 5710 5710 5710 5709 5709 5709 5709 5709 5710 5711 5712 5713 5714 5715 5716 5717 5719 5721 5724
5761 5758 5755 5752 5749 5745 5742 5739 5735 5732 5729 5726 5723 5720 5718 5716 5714 5712 5711 5709 5708 5707 5706 5706 5705 5705 5704 5704 5703 5703 5703 5703 5704 5704 5705 5706 5707 5708 5709 5711 5712 5714 5716
5758 5755 5752 5749 5745 5742 5738 5735 5732 5729 5726 5723 5720 5717 5715 5712 5711 5709 5708 5706 5705 5704 5702 5702 5701 5700 5699 5698 5698 5698 5698 5698 5698 5699 5699 5700 5701 5702 5703 5705 5706 5708 5710
5755 5752 5749 5746 5742 5739 5736 5733 5729 5726 5723 5720 5717 5714 5712 5710 5708 5707 5705 5703 5702 5700 5699 5698 5697 5696 5695 5694 5694 5693 5693 5692 5693 5693 5694 5695 5696 5697 5698 5699 5700 5702 5703
5752 5749 5746 5743 5740 5737 5734 5730 5727 5724 5721 5718 5715 5712 5710 5708 5706 5704 5702 5701 5699 5698 5696 5695 5694 5692 5691 5690 5689 5689 5688 5688 5688 5689 5689 5690 5690 5691 5693 5694 5695 5696 5698
5750 5747 5744 5741 5738 5734 5732 5729 5726 5723 5719 5716 5714 5711 5708 5706 5704 5702 5700 5699 5697 5695 5694 5692 5691 5690 5688 5687 5686 5685 5684 5684 5684 5684 5685 5686 5686 5687 5688 5689 5690 5691 5692
5747 5744 5742 5739 5736 5733 5730 5727 5724 5721 5718 5715 5712 5709 5706 5704 5702 5700 5699 5697 5695 5693 5692 5690 5689 5687 5686 5684 5682 5682 5681 5681 5681 5681 5681 5682 5682 5683 5684 5685 5685 5686 5687
5744 5742 5740 5737 5734 5731 5728 5725 5722 5719 5716 5713 5710 5707 5705 5703 5701 5698 5696 5695 5693 5692 5690 5688 5686 5685 5683 5681 5680 5679 5678 5678 5678 5678 5678 5678 5679 5679 5680 5681 5681 5681 5682
5742 5740 5738 5735 5732 5729 5726 5723 5720 5717 5714 5712 5709 5706 5703 5701 5699 5697 5695 5693 5691 5690 5688 5686 5685 5683 5681 5679 5678 5677 5676 5675 5675 5675 5675 5675 5675 5675 5676 5677 5677 5677 5677